Location: Unspecified
(0.0000°N, 0.0000°E)
Time: 13:23:49
(UTC+02:00)

SJ-6B - Visible Passes

Search period start: 28 June 2016 00:00
Search period end: 08 July 2016 00:00
Orbit: 513 x 585 km, 97.8° (Epoch: 27 June)

Date Brightness Start Highest point End Pass type
(mag) Time Alt. Az. Time Alt. Az. Time Alt. Az.
28 Jun 4.6 21:21:12 10° SSW 21:24:47 32° WSW 21:28:25 10° NW visible
29 Jun 4.3 21:16:31 10° S 21:20:15 37° WSW 21:24:02 10° NNW visible
30 Jun 4.0 21:11:52 10° S 21:15:42 44° WSW 21:19:37 10° NNW visible
01 Jul 3.6 21:07:14 10° S 21:11:10 53° WSW 21:15:10 10° NNW visible
02 Jul 3.3 21:02:37 10° S 21:06:38 64° W 21:10:41 10° NNW visible
03 Jul 3.1 20:58:02 10° S 21:02:05 76° WSW 21:06:12 10° NNW visible
04 Jul 2.9 20:53:28 10° SSE 20:57:33 89° WSW 21:01:40 10° NNW visible
05 Jul 2.8 20:48:56 10° SSE 20:53:01 77° ENE 20:57:07 10° N visible
06 Jul 2.9 20:44:25 10° SSE 20:48:28 65° ENE 20:52:33 10° N visible
07 Jul 3.1 20:39:55 10° SSE 20:43:55 54° ENE 20:47:57 10° N visible
